Kine — C6WT4 — position and weather

sailwx.info

Track history (hours):
 
Tides and Currents Weather Stations Pressure Air Temp Water Temp Dewpoint Dewpoint Depression Visibility Wind Speed Wind Dir Waves Ship Positions

Kine

Last reported at 2014-Jul-21 11:14 UTC. Time now 2014-Jul-24 21:41 UTC.
Position N 66°39' E 011°59'.

Length 89 m; draft 4.8 m.

Type: Cargo ship. MMSI: 311117000.

Date/timePositionNaut miles runAvg speedWind from/ knotsBaromVisibWave heightAir tempDewpointWater temp
2014-Jul-21 11:14N 66°39' E 011°59'810.0
2014-Jul-21 10:26N 66°32' E 011°48'476 9.4
2014-Jul-19 07:33N 59°14' E 005°01'9 9.0
2014-Jul-19 06:33N 59°07' E 005°12'10 9.8
2014-Jul-19 05:33N 59°06' E 005°32'9 9.0
2014-Jul-19 04:33N 59°01' E 005°45'4 3.9
2014-Jul-19 03:31N 58°57' E 005°45'0 0.0
2014-Jul-19 02:31N 58°57' E 005°45'0 0.0
2014-Jul-19 01:31N 58°57' E 005°45'0 0.0
2014-Jul-19 00:28N 58°57' E 005°45'0 0.0
2014-Jul-18 23:31N 58°57' E 005°45'0 0.2
2014-Jul-18 22:33N 58°57' E 005°46'6 6.1
2014-Jul-18 21:33N 59°02' E 005°38'6 6.5
2014-Jul-18 20:33N 58°56' E 005°33'8 8.0
2014-Jul-18 19:33N 58°48' E 005°28'25 7.0
2014-Jul-18 16:04N 58°24' E 005°26'7 8.6
2014-Jul-18 15:17N 58°17' E 005°28'259 8.7
2014-Jul-17 09:33N 53°58' E 004°53'10 9.4
2014-Jul-17 08:30N 53°49' E 004°52'10 9.9
2014-Jul-17 07:31N 53°39' E 004°51'1010.0
2014-Jul-17 06:33N 53°30' E 004°46'10 9.4
2014-Jul-17 05:32N 53°21' E 004°39'10 8.9
2014-Jul-17 04:26N 53°12' E 004°31'16 8.6
2014-Jul-17 02:33N 52°58' E 004°20'8 8.3
2014-Jul-17 01:33N 52°50' E 004°14'8 8.0
2014-Jul-17 00:33N 52°43' E 004°09'9 8.7
2014-Jul-16 23:33N 52°36' E 004°18'8 8.5
2014-Jul-16 22:33N 52°29' E 004°26'7 6.6
2014-Jul-16 21:33N 52°28' E 004°37'7 6.6
2014-Jul-16 20:34N 52°26' E 004°47'3 3.1
2014-Jul-16 19:29N 52°24' E 004°51'0 0.0
2014-Jul-16 18:32N 52°24' E 004°51'0 0.0
2014-Jul-16 17:32N 52°24' E 004°51'0 0.4
2014-Jul-16 16:33N 52°24' E 004°52'0 0.2
2014-Jul-16 15:31N 52°24' E 004°52'0 0.0
2014-Jul-16 14:31N 52°24' E 004°52'0 0.0
2014-Jul-16 13:31N 52°24' E 004°52'0 0.0
2014-Jul-16 12:28N 52°24' E 004°52'0 0.0
2014-Jul-16 11:28N 52°24' E 004°52'0 0.0
2014-Jul-16 10:31N 52°24' E 004°52'0 0.0
2014-Jul-16 09:31N 52°24' E 004°52'0 0.0
2014-Jul-16 08:31N 52°24' E 004°52'0 0.0
2014-Jul-16 07:31N 52°24' E 004°52'0 0.0
2014-Jul-16 06:28N 52°24' E 004°52'0 0.0
2014-Jul-16 05:31N 52°24' E 004°52'0 0.0
2014-Jul-16 04:31N 52°24' E 004°52'0 0.0
2014-Jul-16 03:31N 52°24' E 004°52'0 0.0
2014-Jul-16 02:31N 52°24' E 004°52'0 0.0
2014-Jul-16 01:31N 52°24' E 004°52'2 2.4
2014-Jul-16 00:33N 52°25' E 004°49'8 8.3
2014-Jul-15 23:34N 52°28' E 004°36'6 6.3
2014-Jul-15 22:33N 52°28' E 004°26'8 8.5
2014-Jul-15 21:33N 52°27' E 004°12'10 9.7
2014-Jul-15 20:34N 52°23' E 003°57'9 9.3
2014-Jul-15 19:34N 52°14' E 003°54'1110.6
2014-Jul-15 18:34N 52°03' E 003°56'9 9.0
2014-Jul-15 17:34N 51°58' E 004°08'8 8.0
2014-Jul-15 16:33N 51°54' E 004°19'7 7.0
2014-Jul-15 15:33N 51°50' E 004°29'8 8.2
2014-Jul-15 14:33N 51°44' E 004°38'3 3.0
2014-Jul-15 13:31N 51°42' E 004°35'0 0.0
2014-Jul-15 12:31N 51°42' E 004°35'0 0.0
2014-Jul-15 11:28N 51°42' E 004°35'0 0.0
2014-Jul-15 10:31N 51°42' E 004°35'0 0.0
2014-Jul-15 09:31N 51°42' E 004°35'0 0.0
2014-Jul-15 08:31N 51°42' E 004°35'0 0.0
2014-Jul-15 07:31N 51°42' E 004°35'0 0.0
2014-Jul-15 06:31N 51°42' E 004°35'0 0.0
2014-Jul-15 05:31N 51°42' E 004°35'0 0.0
2014-Jul-15 04:31N 51°42' E 004°35'0 0.0
2014-Jul-15 03:28N 51°42' E 004°35'0 0.0
2014-Jul-15 02:28N 51°42' E 004°35'0 0.0
2014-Jul-15 01:28N 51°42' E 004°35'0 0.0
2014-Jul-15 00:28N 51°42' E 004°35'0 0.0
2014-Jul-14 23:31N 51°42' E 004°35'0 0.0
2014-Jul-14 22:31N 51°42' E 004°35'0 0.0
2014-Jul-14 21:28N 51°42' E 004°35'0 0.0
2014-Jul-14 20:31N 51°42' E 004°35'0 0.0
2014-Jul-14 19:25N 51°42' E 004°35'0 0.0
2014-Jul-14 18:31N 51°41' E 004°35'4 3.8
2014-Jul-14 17:33N 51°45' E 004°38'9 8.9
2014-Jul-14 16:33N 51°50' E 004°26'8 7.9
2014-Jul-14 15:33N 51°54' E 004°16'10 9.9
2014-Jul-14 14:33N 51°60' E 004°02'10 8.7
2014-Jul-14 13:27N 51°57' E 003°47'1 0.1
2014-Jul-14 06:15N 51°57' E 003°47'0 0.1
2014-Jul-14 05:27N 51°57' E 003°47'0 0.0
2014-Jul-14 04:27N 51°57' E 003°47'0 0.0
2014-Jul-14 02:09N 51°57' E 003°47'0 0.0
2014-Jul-14 01:27N 51°57' E 003°47'0 0.1
2014-Jul-14 00:33N 51°57' E 003°47'0 0.0
2014-Jul-13 23:30N 51°57' E 003°47'0 0.0
2014-Jul-13 19:15N 51°57' E 003°47'0 0.0
2014-Jul-13 13:21N 51°57' E 003°47'0 0.0
2014-Jul-13 12:24N 51°57' E 003°47'0 0.1
2014-Jul-13 10:33N 51°57' E 003°47'0 0.0
2014-Jul-13 09:33N 51°57' E 003°47'0 0.0
2014-Jul-13 08:27N 51°57' E 003°47'0 0.0
2014-Jul-13 04:21N 51°57' E 003°47'0 0.0
2014-Jul-13 02:18N 51°57' E 003°47'18 4.6
2014-Jul-12 22:30N 51°51' E 003°21'9 8.5
2014-Jul-12 21:29N 51°42' E 003°17'17 8.8
2014-Jul-12 19:33N 51°28' E 003°31'1010.3
2014-Jul-12 18:33N 51°24' E 003°46'9 9.3
2014-Jul-12 17:33N 51°26' E 004°00'1010.1
2014-Jul-12 16:33N 51°21' E 004°15'9 8.7
2014-Jul-12 15:33N 51°14' E 004°23'7 6.7
2014-Jul-12 14:33N 51°08' E 004°19'2 2.0
2014-Jul-12 13:33N 51°06' E 004°19'1 0.0
2014-Jul-11 14:18N 51°05' E 004°21'2 3.0
2014-Jul-11 13:33N 51°07' E 004°18'8 7.8
2014-Jul-11 12:33N 51°14' E 004°23'7 7.3
2014-Jul-11 11:34N 51°20' E 004°16'  
Track history (hours):
 
Tides and Currents Weather Stations Pressure Air Temp Water Temp Dewpoint Dewpoint Depression Visibility Wind Speed Wind Dir Waves Ship Positions

Kine

Last reported at 2014-Jul-21 11:14 UTC. Time now 2014-Jul-24 21:41 UTC.
Position N 66°39' E 011°59'.

Length 89 m; draft 4.8 m.

Type: Cargo ship. MMSI: 311117000.

Date/timePositionNaut miles runAvg speedWind from/ knotsBaromVisibWave heightAir tempDewpointWater temp
2014-Jul-21 11:14N 66°39' E 011°59'810.0
2014-Jul-21 10:26N 66°32' E 011°48'476 9.4
2014-Jul-19 07:33N 59°14' E 005°01'9 9.0
2014-Jul-19 06:33N 59°07' E 005°12'10 9.8
2014-Jul-19 05:33N 59°06' E 005°32'9 9.0
2014-Jul-19 04:33N 59°01' E 005°45'4 3.9
2014-Jul-19 03:31N 58°57' E 005°45'0 0.0
2014-Jul-19 02:31N 58°57' E 005°45'0 0.0
2014-Jul-19 01:31N 58°57' E 005°45'0 0.0
2014-Jul-19 00:28N 58°57' E 005°45'0 0.0
2014-Jul-18 23:31N 58°57' E 005°45'0 0.2
2014-Jul-18 22:33N 58°57' E 005°46'6 6.1
2014-Jul-18 21:33N 59°02' E 005°38'6 6.5
2014-Jul-18 20:33N 58°56' E 005°33'8 8.0
2014-Jul-18 19:33N 58°48' E 005°28'25 7.0
2014-Jul-18 16:04N 58°24' E 005°26'7 8.6
2014-Jul-18 15:17N 58°17' E 005°28'259 8.7
2014-Jul-17 09:33N 53°58' E 004°53'10 9.4
2014-Jul-17 08:30N 53°49' E 004°52'10 9.9
2014-Jul-17 07:31N 53°39' E 004°51'1010.0
2014-Jul-17 06:33N 53°30' E 004°46'10 9.4
2014-Jul-17 05:32N 53°21' E 004°39'10 8.9
2014-Jul-17 04:26N 53°12' E 004°31'16 8.6
2014-Jul-17 02:33N 52°58' E 004°20'8 8.3
2014-Jul-17 01:33N 52°50' E 004°14'8 8.0
2014-Jul-17 00:33N 52°43' E 004°09'9 8.7
2014-Jul-16 23:33N 52°36' E 004°18'8 8.5
2014-Jul-16 22:33N 52°29' E 004°26'7 6.6
2014-Jul-16 21:33N 52°28' E 004°37'7 6.6
2014-Jul-16 20:34N 52°26' E 004°47'3 3.1
2014-Jul-16 19:29N 52°24' E 004°51'0 0.0
2014-Jul-16 18:32N 52°24' E 004°51'0 0.0
2014-Jul-16 17:32N 52°24' E 004°51'0 0.4
2014-Jul-16 16:33N 52°24' E 004°52'0 0.2
2014-Jul-16 15:31N 52°24' E 004°52'0 0.0
2014-Jul-16 14:31N 52°24' E 004°52'0 0.0
2014-Jul-16 13:31N 52°24' E 004°52'0 0.0
2014-Jul-16 12:28N 52°24' E 004°52'0 0.0
2014-Jul-16 11:28N 52°24' E 004°52'0 0.0
2014-Jul-16 10:31N 52°24' E 004°52'0 0.0
2014-Jul-16 09:31N 52°24' E 004°52'0 0.0
2014-Jul-16 08:31N 52°24' E 004°52'0 0.0
2014-Jul-16 07:31N 52°24' E 004°52'0 0.0
2014-Jul-16 06:28N 52°24' E 004°52'0 0.0
2014-Jul-16 05:31N 52°24' E 004°52'0 0.0
2014-Jul-16 04:31N 52°24' E 004°52'0 0.0
2014-Jul-16 03:31N 52°24' E 004°52'0 0.0
2014-Jul-16 02:31N 52°24' E 004°52'0 0.0
2014-Jul-16 01:31N 52°24' E 004°52'2 2.4
2014-Jul-16 00:33N 52°25' E 004°49'8 8.3
2014-Jul-15 23:34N 52°28' E 004°36'6 6.3
2014-Jul-15 22:33N 52°28' E 004°26'8 8.5
2014-Jul-15 21:33N 52°27' E 004°12'10 9.7
2014-Jul-15 20:34N 52°23' E 003°57'9 9.3
2014-Jul-15 19:34N 52°14' E 003°54'1110.6
2014-Jul-15 18:34N 52°03' E 003°56'9 9.0
2014-Jul-15 17:34N 51°58' E 004°08'8 8.0
2014-Jul-15 16:33N 51°54' E 004°19'7 7.0
2014-Jul-15 15:33N 51°50' E 004°29'8 8.2
2014-Jul-15 14:33N 51°44' E 004°38'3 3.0
2014-Jul-15 13:31N 51°42' E 004°35'0 0.0
2014-Jul-15 12:31N 51°42' E 004°35'0 0.0
2014-Jul-15 11:28N 51°42' E 004°35'0 0.0
2014-Jul-15 10:31N 51°42' E 004°35'0 0.0
2014-Jul-15 09:31N 51°42' E 004°35'0 0.0
2014-Jul-15 08:31N 51°42' E 004°35'0 0.0
2014-Jul-15 07:31N 51°42' E 004°35'0 0.0
2014-Jul-15 06:31N 51°42' E 004°35'0 0.0
2014-Jul-15 05:31N 51°42' E 004°35'0 0.0
2014-Jul-15 04:31N 51°42' E 004°35'0 0.0
2014-Jul-15 03:28N 51°42' E 004°35'0 0.0
2014-Jul-15 02:28N 51°42' E 004°35'0 0.0
2014-Jul-15 01:28N 51°42' E 004°35'0 0.0
2014-Jul-15 00:28N 51°42' E 004°35'0 0.0
2014-Jul-14 23:31N 51°42' E 004°35'0 0.0
2014-Jul-14 22:31N 51°42' E 004°35'0 0.0
2014-Jul-14 21:28N 51°42' E 004°35'0 0.0
2014-Jul-14 20:31N 51°42' E 004°35'0 0.0
2014-Jul-14 19:25N 51°42' E 004°35'0 0.0
2014-Jul-14 18:31N 51°41' E 004°35'4 3.8
2014-Jul-14 17:33N 51°45' E 004°38'9 8.9
2014-Jul-14 16:33N 51°50' E 004°26'8 7.9
2014-Jul-14 15:33N 51°54' E 004°16'10 9.9
2014-Jul-14 14:33N 51°60' E 004°02'10 8.7
2014-Jul-14 13:27N 51°57' E 003°47'1 0.1
2014-Jul-14 06:15N 51°57' E 003°47'0 0.1
2014-Jul-14 05:27N 51°57' E 003°47'0 0.0
2014-Jul-14 04:27N 51°57' E 003°47'0 0.0
2014-Jul-14 02:09N 51°57' E 003°47'0 0.0
2014-Jul-14 01:27N 51°57' E 003°47'0 0.1
2014-Jul-14 00:33N 51°57' E 003°47'0 0.0
2014-Jul-13 23:30N 51°57' E 003°47'0 0.0
2014-Jul-13 19:15N 51°57' E 003°47'0 0.0
2014-Jul-13 13:21N 51°57' E 003°47'0 0.0
2014-Jul-13 12:24N 51°57' E 003°47'0 0.1
2014-Jul-13 10:33N 51°57' E 003°47'0 0.0
2014-Jul-13 09:33N 51°57' E 003°47'0 0.0
2014-Jul-13 08:27N 51°57' E 003°47'0 0.0
2014-Jul-13 04:21N 51°57' E 003°47'0 0.0
2014-Jul-13 02:18N 51°57' E 003°47'18 4.6
2014-Jul-12 22:30N 51°51' E 003°21'9 8.5
2014-Jul-12 21:29N 51°42' E 003°17'17 8.8
2014-Jul-12 19:33N 51°28' E 003°31'1010.3
2014-Jul-12 18:33N 51°24' E 003°46'9 9.3
2014-Jul-12 17:33N 51°26' E 004°00'1010.1
2014-Jul-12 16:33N 51°21' E 004°15'9 8.7
2014-Jul-12 15:33N 51°14' E 004°23'7 6.7
2014-Jul-12 14:33N 51°08' E 004°19'2 2.0
2014-Jul-12 13:33N 51°06' E 004°19'1 0.0
2014-Jul-11 14:18N 51°05' E 004°21'2 3.0
2014-Jul-11 13:33N 51°07' E 004°18'8 7.8
2014-Jul-11 12:33N 51°14' E 004°23'7 7.3
2014-Jul-11 11:34N 51°20' E 004°16'  

Dump ship's entire track history